Weather observations for the past three days for
Gonzales Roger M. Dreyer Memorial
Imperial (Metric)
Date Time (cdt) Wind (mph) Vis. (mi.) Weather Sky Cond. Temperature (ºF) Relative Humidity Wind Chill (°F) Heat Index (°F) Pressure Precipitation (in)
Air Dwpt 6 hour altimeter (in) sea level (mb) 1 hr 3 hr 6 hr
Max. Min.
23 18:35 SE 8 10.00 Fair CLR 89.6 76.6 66% 102 29.89 0.0
23 18:15 SE 9 G 16 10.00 Partly Cloudy SCT047 89.8 76.8 66% 103 29.89 0.0
23 17:55 S 8 G 16 10.00 Mostly Cloudy BKN047 BKN055 90 76.5 65% 102 29.89 0.0
23 17:35 E 5 10.00 Partly Cloudy SCT047 SCT055 92.5 73.4 54% 102 29.89 0.0
23 16:55 E 7 10.00 Fair CLR 93.4 73.8 53% 103 29.9 0.0
23 16:35 Calm 10.00 Partly Cloudy SCT048 SCT055 93.2 73.6 53% 103 29.91 0.0
23 16:15 E 7 10.00 Fair CLR 93.2 74.1 54% 104 29.92 0.0
23 15:55 E 8 10.00 Partly Cloudy SCT046 SCT050 93 73.9 54% 103 29.92 0.0
23 15:35 E 5 10.00 Partly Cloudy SCT046 SCT050 91 73.8 57% 100 29.93 0.0
23 15:15 E 3 10.00 Mostly Cloudy SCT041 SCT048 BKN050 90.7 74.5 59% 101 29.94 0.0
23 14:55 Calm 10.00 Partly Cloudy SCT041 SCT050 91.2 74.7 58% 102 29.94 0.0
23 14:35 E 7 10.00 Partly Cloudy SCT039 91.8 75.7 60% 104 29.95 0.0
23 14:15 E 6 10.00 Partly Cloudy SCT039 91.8 75.6 59% 104 29.95 0.0
23 13:55 E 8 10.00 Mostly Cloudy BKN039 90 75.4 62% 101 29.96 0.0
23 13:35 S 5 10.00 Mostly Cloudy BKN039 BKN045 91.2 76.1 61% 104 29.97 0.0
23 13:15 SE 5 10.00 Mostly Cloudy SCT033 BKN041 89.6 75.6 63% 101 29.98 0.0
23 12:55 SE 5 10.00 Mostly Cloudy BKN033 BKN040 88.7 75 89.8 72.5 64% 99 29.98 0.0
23 12:35 E 6 10.00 Mostly Cloudy BKN033 88.2 75 65% 98 29.99 0.0
23 12:15 Calm 10.00 Partly Cloudy SCT031 87.8 74.5 65% 97 29.99 0.0
23 11:55 SE 3 10.00 Partly Cloudy SCT029 87.8 74.7 65% 97 29.99 0.0
23 11:35 E 5 10.00 Fair CLR 86.9 75 68% 96 30 0.0
23 11:15 E 7 10.00 Partly Cloudy SCT025 86.5 75 69% 96 30 0.0
23 10:55 E 5 10.00 Partly Cloudy SCT023 85.6 75 71% 94 30 0.0
23 10:35 E 3 10.00 Partly Cloudy SCT021 84.4 74.8 73% 92 30 0.0
23 10:15 E 3 10.00 Fair CLR 83.7 74.8 75% 91 30 0.0
23 09:55 E 3 10.00 Partly Cloudy SCT013 82.8 75 78% 90 30.01 0.0
23 09:35 E 3 10.00 Partly Cloudy SCT013 82.4 76.1 81% 90 30.01 0.0
23 09:15 Calm 10.00 Fair CLR 80.8 75.4 84% 87 30.01 0.0
23 08:55 NE 5 10.00 Fair CLR 79.7 75.4 87% 84 30.01 0.0
23 08:35 NE 5 10.00 Fair CLR 78.1 75.7 93% 81 30 0.0
23 08:15 NE 3 10.00 Fair CLR 76.8 75.6 96% 77 30 0.0
23 07:55 Calm 7.00 Partly Cloudy SCT014 75.6 74.8 98% 74 30 0.0
23 07:35 N 3 5.00 Fog/Mist BKN014 73.9 73.4 98% 30 0.0
23 07:15 Calm 4.00 Fog/Mist CLR 72.9 72.5 99% 29.99 0.0
23 06:55 Calm 3.00 Fog/Mist CLR 72.3 71.8 77.2 72.1 98% 29.99 0.0
23 06:35 Calm 4.00 Fog/Mist CLR 72.9 72.3 98% 29.98 0.0
23 06:15 Calm 7.00 Fair CLR 73.4 72.9 98% 29.98 0.0
23 05:55 N 5 4.00 Fog/Mist CLR 72.5 72 98% 29.97 0.0
23 05:35 Calm 5.00 Fog/Mist CLR 73.4 72.5 97% 29.97 0.0
23 05:15 Calm 2.50 Fog/Mist CLR 73.2 72.7 98% 29.97 0.0
23 04:55 Calm 5.00 Fog/Mist CLR 72.9 72.1 98% 29.97 0.0
23 04:35 Calm 5.00 Fog/Mist CLR 73.4 72.5 97% 29.97 0.0
23 04:15 Calm 7.00 Fair CLR 73.8 72.9 97% 29.97 0.0
23 03:55 N 3 10.00 Fair CLR 73.8 72.7 96% 29.97 0.0
23 03:35 N 3 10.00 Fair CLR 73.8 72.7 96% 29.97 0.0
23 03:15 Calm 10.00 Fair CLR 74.3 73.2 96% 29.97 0.0
23 02:55 Calm 10.00 Fair CLR 74.3 73.2 96% 29.98 0.0
23 02:35 Calm 10.00 Fair CLR 74.5 72.9 95% 29.98 0.0
23 02:15 Calm 10.00 Fair CLR 75.2 73.4 94% 74 29.99 0.0
23 01:55 Calm 10.00 Fair CLR 76.3 73.6 91% 76 30 0.0
23 01:35 Calm 10.00 Fair CLR 77 73.8 90% 78 30 0.0
23 01:15 Calm 10.00 Fair CLR 77.2 73.9 90% 79 30 0.0
23 00:55 Calm 10.00 Fair CLR 77.2 73.6 90.9 77.2 89% 79 30.01 0.0
23 00:35 Calm 10.00 Fair CLR 77.9 73.8 87% 80 30.02 0.0
23 00:15 S 3 10.00 Fair CLR 78.4 73.6 85% 81 30.02 0.0
22 23:55 S 3 10.00 Fair CLR 79 73.4 83% 82 30.02 0.0
22 23:35 S 6 10.00 Fair CLR 80.1 73.2 80% 84 30.01 0.0
22 23:15 SE 8 10.00 Fair CLR 80.8 72.7 76% 85 30.01 0.0
22 22:55 SE 7 10.00 Fair CLR 81 72.7 76% 86 30.01 0.0
22 22:35 SE 5 10.00 Fair CLR 81 72.7 76% 86 30 0.0
22 22:15 SE 6 10.00 Fair CLR 81.9 72.5 73% 87 29.99 0.0
22 21:55 SE 6 10.00 Fair CLR 82.8 72.1 70% 88 29.98 0.0
22 21:35 SE 3 10.00 Fair CLR 83.3 72 69% 89 29.98 0.0
22 21:15 SE 3 10.00 Fair CLR 83.3 72 69% 89 29.97 0.0
22 20:55 Calm 10.00 Fair CLR 84.6 71.8 66% 90 29.97 0.0
22 20:35 Calm 10.00 Partly Cloudy SCT055 85.3 72 64% 91 29.97 0.0
22 20:15 Calm 10.00 Partly Cloudy SCT055 87.1 71.6 60% 93 29.97 0.0
22 19:55 E 6 10.00 Fair CLR 88.3 70.7 56% 94 29.97 0.0
22 19:35 E 7 10.00 Fair CLR 89.2 70.9 55% 95 29.96 0.0
22 19:15 E 7 10.00 Partly Cloudy SCT050 90.1 70.9 53% 96 29.96 0.0
22 18:55 E 6 10.00 Fair CLR 91 71.2 93 89.2 52% 98 29.96 0.0
22 18:35 E 6 10.00 Fair CLR 90.7 71.1 53% 97 29.96 0.0
22 18:15 E 5 10.00 Partly Cloudy SCT050 SCT065 91.4 70.9 51% 98 29.96 0.0
22 17:55 E 7 10.00 Partly Cloudy SCT050 SCT065 91.9 71.4 51% 99 29.96 0.0
22 17:35 E 9 10.00 Partly Cloudy SCT048 SCT060 SCT070 92.3 71.8 51% 100 29.97 0.0
22 17:15 E 8 10.00 Mostly Cloudy SCT048 SCT060 BKN070 92.7 73.4 54% 102 29.97 0.0
22 16:55 E 6 10.00 Partly Cloudy SCT048 SCT060 SCT070 92.5 73.6 54% 102 29.97 0.0
22 16:35 E 10 10.00 Partly Cloudy SCT048 SCT070 92.7 74.1 55% 103 29.98 0.0
22 16:15 E 7 10.00 Mostly Cloudy SCT048 SCT060 BKN085 90.1 73.2 58% 99 29.98 0.0
22 15:55 SE 9 10.00 Mostly Cloudy SCT050 BKN060 91.8 73.6 55% 101 29.99 0.0
22 15:35 E 8 10.00 Partly Cloudy SCT050 93 73.6 53% 103 29.99 0.0
22 15:15 E 6 G 16 10.00 Partly Cloudy SCT050 SCT060 92.5 73 53% 101 30 0.0
22 14:55 E 6 10.00 Mostly Cloudy SCT050 BKN070 90.5 72.5 56% 98 30.01 0.0
22 14:35 SE 9 10.00 Partly Cloudy SCT050 91.9 73 54% 101 30.02 0.0
22 14:15 E 7 10.00 Partly Cloudy SCT048 SCT055 SCT065 91.6 72.5 54% 100 30.02 0.0
22 13:55 E 10 10.00 Partly Cloudy SCT048 SCT065 90.1 73.8 59% 99 30.03 0.0
22 13:35 E 3 10.00 Partly Cloudy SCT048 90.9 73 56% 99 30.03 0.0
22 13:15 E 6 10.00 Partly Cloudy SCT045 91 73 56% 100 30.03 0.0
22 12:55 E 3 10.00 Partly Cloudy SCT045 91 73.9 91 75.4 57% 101 30.04 0.0
22 12:35 SE 7 10.00 Fair CLR 89.8 73.2 58% 98 30.04 0.0
22 12:15 E 6 G 9 10.00 Fair CLR 89.2 72.1 57% 96 30.05 0.0
22 11:55 SE 8 10.00 Partly Cloudy SCT038 89.4 72.5 58% 97 30.05 0.0
22 11:35 E 3 10.00 Partly Cloudy SCT036 88 73 61% 96 30.06 0.0
22 11:15 E 3 10.00 Partly Cloudy SCT032 87.8 74.5 65% 97 30.07 0.0
22 10:55 E 7 10.00 Partly Cloudy SCT025 86.9 74.5 67% 96 30.07 0.0
22 10:35 SE 3 10.00 Partly Cloudy SCT019 SCT024 85.8 76.1 73% 96 30.07 0.0
22 10:15 SE 5 10.00 Mostly Cloudy BKN017 84.6 76.1 76% 94 30.07 0.0
22 09:55 Calm 10.00 Overcast OVC015 83.5 76.8 80% 93 30.07 0.0
22 09:35 E 6 10.00 Mostly Cloudy BKN013 83.5 77.7 83% 94 30.08 0.0
22 09:15 SE 5 10.00 Mostly Cloudy BKN011 82 77.2 85% 90 30.08 0.0
22 08:55 E 6 10.00 Mostly Cloudy BKN009 BKN017 81.3 77.7 89% 89 30.08 0.0
22 08:35 E 5 10.00 Partly Cloudy SCT007 SCT017 80.1 77.7 93% 86 30.08 0.0
22 08:15 E 5 10.00 Fair CLR 78.8 77.2 95% 83 30.08 0.0
22 07:55 E 5 10.00 Fair CLR 77.7 76.5 96% 80 30.07 0.0
22 07:35 E 6 7.00 Fair CLR 76.5 75.7 98% 76 30.07 0.0
22 07:15 E 6 5.00 Fog/Mist CLR 75.9 75.2 98% 75 30.07 0.0
22 06:55 NE 3 7.00 Fair CLR 75.4 74.7 77.9 75 98% 74 30.07 0.0
22 06:35 NE 3 5.00 Fog/Mist CLR 75 74.3 98% 73 30.07 0.0
22 06:15 Calm 7.00 Partly Cloudy SCT023 75.2 74.5 98% 73 30.07 0.0
22 05:55 Calm 7.00 Mostly Cloudy BKN019 BKN023 75.7 74.8 97% 75 30.07 0.0
22 05:35 Calm 5.00 Fog/Mist BKN015 BKN022 75.6 74.7 97% 74 30.07 0.0
22 05:15 Calm 7.00 Fair CLR 75.6 74.7 97% 74 30.07 0.0
22 04:55 Calm 7.00 Partly Cloudy SCT015 75.7 74.7 96% 75 30.07 0.0
22 04:35 Calm 7.00 Mostly Cloudy BKN015 75.4 74.3 96% 74 30.06 0.0
22 04:15 Calm 10.00 Partly Cloudy SCT015 75.7 74.7 96% 75 30.07 0.0
22 03:55 Calm 10.00 Fair CLR 76.1 74.7 95% 76 30.06 0.0
22 03:35 Calm 10.00 Fair CLR 75.9 74.7 96% 75 30.07 0.0
22 03:15 Calm 10.00 Fair CLR 75.6 74.1 95% 74 30.07 0.0
22 02:55 Calm 10.00 Fair CLR 76.5 75 95% 77 30.07 0.0
22 02:35 Calm 10.00 Fair CLR 76.8 75.2 95% 77 30.07 0.0
22 02:15 Calm 10.00 Fair CLR 77 75.2 94% 78 30.07 0.0
22 01:55 Calm 4.00 Fog/Mist CLR 77 75.2 94% 78 30.07 0.0
22 01:35 Calm 10.00 Fair CLR 77.4 75.2 93% 79 30.07 0.0
22 01:15 Calm 10.00 Fair CLR 77.5 75.2 93% 79 30.08 0.0
22 00:55 Calm 10.00 Fair CLR 78.1 75.4 90.7 78.1 91% 81 30.07 0.0
22 00:35 SE 5 10.00 Fair CLR 78.1 75.2 91% 81 30.07 0.0
22 00:15 SE 5 10.00 Partly Cloudy SCT027 78.8 75.6 90% 82 30.07 0.0
21 23:55 SE 5 10.00 Fair CLR 79 75.4 89% 83 30.08 0.0
21 23:35 SE 5 10.00 Fair CLR 79.3 75.6 88% 84 30.07 0.0
21 23:15 Calm 10.00 Fair CLR 79.9 75.6 87% 85 30.08 0.0
21 22:55 Calm 10.00 Fair CLR 80.2 75.7 86% 86 30.07 0.0
21 22:35 Calm 10.00 Partly Cloudy SCT037 SCT043 80.6 76.1 86% 87 30.07 0.0
21 22:15 Calm 10.00 Mostly Cloudy SCT035 BKN043 80.8 75.7 85% 87 30.06 0.0
21 21:55 SE 3 10.00 Mostly Cloudy BKN037 BKN044 81.5 75.6 82% 88 30.06 0.0
21 21:35 Calm 10.00 Partly Cloudy SCT040 81.5 75.2 81% 88 30.05 0.0
21 21:15 Calm 10.00 Partly Cloudy SCT040 SCT046 82.4 75.2 79% 89 30.04 0.0
21 20:55 SE 3 10.00 Mostly Cloudy BKN042 BKN048 83.3 75 76% 91 30.04 0.0
21 20:35 S 3 10.00 Partly Cloudy SCT042 SCT050 83.7 74.8 75% 91 30.04 0.0
21 20:15 SE 3 10.00 Partly Cloudy SCT041 SCT047 84.9 74.8 72% 93 30.03 0.0
21 19:55 E 3 10.00 Partly Cloudy SCT045 85.1 74.3 70% 93 30.03 0.0
21 19:35 SE 6 10.00 Partly Cloudy SCT110 85.5 74.1 69% 93 30.03 0.0
21 19:15 SE 6 10.00 Mostly Cloudy SCT042 SCT055 BKN080 86.9 74.3 66% 96 30.03 0.0
21 18:55 E 9 10.00 Partly Cloudy SCT042 SCT100 90.7 74.5 92.7 87.6 59% 101 30.02 0.0
21 18:35 E 7 10.00 Fair CLR 90.1 73.9 59% 99 30.02 0.0
21 18:15 E 9 G 17 10.00 Fair CLR 90.5 73 57% 99 30.02 0.0
21 17:55 E 10 10.00 Fair CLR 91 73.8 57% 100 30.02 0.0
21 17:35 E 12 G 17 10.00 Fair CLR 90.7 72.7 56% 99 30.03 0.0
21 17:15 E 14 G 18 10.00 Fair CLR 91 74.1 58% 101 30.03 0.0
21 16:55 E 13 G 16 10.00 Partly Cloudy SCT100 SCT120 91 74.8 59% 102 30.04 0.0
21 16:35 E 10 10.00 Mostly Cloudy SCT046 BKN100 90 73 58% 98 30.04 0.0
21 16:15 E 10 G 16 10.00 Partly Cloudy SCT046 SCT110 91.6 72.7 54% 100 30.04 0.0
21 15:55 E 12 10.00 Partly Cloudy SCT044 91.9 73.8 55% 102 30.05 0.0
21 15:35 E 12 10.00 Partly Cloudy SCT044 SCT060 91.4 74.3 57% 101 30.05 0.0
21 15:15 NE 7 10.00 Fair CLR 90.3 75.7 62% 102 30.06 0.0
21 14:55 NE 7 7.00 Partly Cloudy SCT070 SCT100 89.4 75.4 63% 100 30.07 0.0
21 14:35 NE 10 G 16 7.00 Fair CLR 89.2 75.4 64% 100 30.08 0.0
21 14:15 E 8 1.50 Mostly Cloudy with Haze SCT031 SCT041 BKN110 89.8 75.6 63% 101 30.09 0.0
21 13:55 E 8 1.50 Overcast with Haze SCT032 OVC041 88.9 74.3 62% 98 30.09 0.0
21 13:35 E 6 7.00 Partly Cloudy SCT039 SCT045 SCT085 89.1 73.6 60% 98 30.1 0.0
21 13:15 E 6 1.75 Mostly Cloudy with Haze SCT050 SCT060 BKN090 89.4 74.7 62% 99 30.1 0.0
21 12:55 E 8 1.75 Mostly Cloudy with Haze SCT031 BKN050 BKN085 89.1 75.7 89.4 76.1 65% 100 30.11 0.0
21 12:35 E 6 3.00 Mostly Cloudy with Haze SCT031 BKN039 BKN055 88 76.1 68% 99 30.12 0.0
21 12:15 E 6 1.75 Mostly Cloudy with Haze BKN027 BKN041 BKN055 86.5 75.2 69% 96 30.12 0.0
21 11:55 E 8 1.50 Partly Cloudy with Haze SCT027 SCT055 88.2 75.2 66% 98 30.12 0.0
21 11:35 E 7 1.50 Mostly Cloudy with Haze BKN025 BKN036 BKN045 86.7 75.9 70% 97 30.12 0.0
21 11:15 E 6 0.75 Overcast with Haze OVC022 86.4 76.1 72% 97 30.12 0.0
21 10:55 SE 3 0.50 Overcast with Haze BKN020 BKN028 OVC034 83.7 75.7 77% 92 30.12 0.0
21 10:35 E 8 0.50 Mostly Cloudy with Haze BKN021 BKN030 BKN044 85.5 76.8 75% 96 30.13 0.0
21 10:15 E 9 0.25 Overcast with Haze OVC018 85.1 77 77% 96 30.13 0.0
21 09:55 E 8 0.25 Overcast with Haze OVC014 83.1 76.8 81% 92 30.13 0.0
21 09:35 E 6 0.15 Fog OVC010 81.9 77.9 88% 90 30.13 0.0
21 09:15 NE 6 1.75 Fog/Mist OVC010 80.1 77.5 92% 86 30.12 0.0
21 08:55 E 6 0.75 Fog/Mist OVC008 79.7 77.9 94% 85 30.11 0.0
21 08:35 E 5 0.75 Fog/Mist OVC006 79 77.7 96% 83 30.11 0.0
21 08:15 E 6 0.50 Fog OVC006 78.3 77.5 98% 81 30.1 0.0
21 07:55 E 6 0.50 Fog OVC004 77.9 77.4 98% 80 30.1 0.0
21 07:35 NE 5 2.50 Fog/Mist OVC004 77.2 76.8 99% 78 30.1 0.0
21 07:15 NE 5 2.50 Fog/Mist OVC004 76.8 76.3 98% 77 30.09 0.0
21 06:55 Calm 3.00 Fog/Mist OVC004 76.1 75.6 78.3 75.9 98% 75 30.09 0.0
21 06:35 NE 5 3.00 Fog/Mist BKN006 OVC015 76.1 75.4 98% 75 30.09 0.0
21 06:15 NE 6 5.00 Fog/Mist SCT004 SCT008 OVC015 76.1 75.4 98% 75 30.08 0.0
21 05:55 NE 5 7.00 Overcast SCT006 OVC019 76.1 75.4 98% 75 30.08 0.0
21 05:35 NE 3 7.00 Overcast BKN006 OVC019 76.1 75.4 98% 75 30.07 0.0
21 05:15 Calm 7.00 Overcast BKN006 OVC009 76.3 75.6 98% 76 30.07 0.0
21 04:55 Calm 7.00 Overcast SCT008 OVC022 76.5 75.6 97% 76 30.07 0.0
21 04:35 NE 3 10.00 Mostly Cloudy BKN022 76.6 75.6 96% 77 30.07 0.0
21 04:15 NE 5 10.00 Partly Cloudy SCT024 76.6 75.6 96% 77 30.07 0.0
21 03:55 NE 3 10.00 Partly Cloudy SCT012 SCT017 SCT025 77 75.6 95% 78 30.08 0.0
21 03:35 NE 3 10.00 Partly Cloudy SCT017 SCT026 77 75.6 95% 78 30.08 0.0
21 03:15 NE 3 10.00 Partly Cloudy SCT010 77 75.4 95% 78 30.08 0.0
21 02:55 E 3 10.00 Partly Cloudy SCT010 77 75.4 95% 78 30.08 0.0
21 02:35 NE 3 10.00 Fair CLR 77.2 75.4 94% 78 30.09 0.0
21 02:15 E 3 10.00 Fair CLR 77.4 75.4 94% 79 30.09 0.0
21 01:55 Calm 10.00 Fair CLR 77.9 75.4 92% 80 30.1 0.0
21 01:35 E 3 10.00 Fair CLR 77.9 75.2 91% 80 30.1 0.0
21 01:15 Calm 10.00 Fair CLR 77.9 75.2 91% 80 30.11 0.0
21 00:55 Calm 10.00 Partly Cloudy SCT026 78.3 75.2 86.2 78.3 90% 81 30.11 0.0
21 00:35 E 5 10.00 Partly Cloudy SCT026 78.4 75.2 90% 82 30.11 0.0
21 00:15 E 3 10.00 Fair CLR 78.3 75.4 91% 81 30.1 0.0
20 23:55 E 3 10.00 Fair CLR 78.8 75.4 89% 82 30.1 0.0
20 23:35 E 3 10.00 Fair CLR 79 75.4 89% 83 30.1 0.0
20 23:15 E 3 10.00 Fair CLR 79.7 75.4 87% 84 30.1 0.0
20 22:55 E 3 10.00 Fair CLR 79.7 75.4 87% 84 30.09 0.0
20 22:35 E 3 10.00 Fair CLR 80.2 75.4 85% 86 30.08 0.0
20 22:15 E 5 10.00 Fair CLR 80.6 75.6 85% 86 30.08 0.0
20 21:55 E 5 10.00 Fair CLR 80.8 75.7 85% 87 30.07 0.0
20 21:35 E 3 10.00 Fair CLR 81.3 75.7 83% 88 30.06 0.0
20 21:15 E 5 10.00 Fair CLR 81.9 75.7 82% 89 30.05 0.0
20 20:55 E 5 10.00 Partly Cloudy SCT032 82.8 75.9 80% 91 30.05 0.0
20 20:35 E 5 10.00 Partly Cloudy SCT032 SCT038 SCT044 84 75.7 76% 93 30.04 0.0
20 20:15 E 8 10.00 Mostly Cloudy BKN032 BKN038 BKN044 84.7 76.1 75% 94 30.04 0.0
20 19:55 E 8 10.00 Partly Cloudy SCT036 85.5 76.1 74% 95 30.04 0.0
20 19:35 E 8 10.00 Fair CLR 85.6 76.1 73% 96 30.03 0.0
20 19:15 E 10 G 21 10.00 Fair CLR 86 76.8 74% 97 30.02 0.0
Date Time (cdt) Wind (mph) Vis. (mi.) Weather Sky Cond. Air Dwpt Max. Min. Relative Humidity Wind Chill (°F) Heat Index (°F) altimeter (in) sea level (mb) 1 hr 3 hr 6 hr
6 hour
Temperature (ºF) Pressure Precipitation (in)